Temperature
18 18 18 18 18 18 18 18 18 18 18 18 17 18 18 18 18 18 18 17 17 17 17 17 17 17 17 17 17 16 16 16 16 16 16 16 16 16 15 16 16 15 15
18 18 18 18 17 17 18 18 18 18 18 17 17 17 17 17 18 18 18 17 17 17 17 17 17 17 17 17 17 16 16 16 16 16 16 16 16 16 16 16 16 15 15
18 18 18 17 18 18 18 18 18 18 17 17 17 17 17 17 17 17 17 17 17 17 17 17 17 17 17 17 17 16 16 16 16 16 16 16 16 16 16 16 16 15 15
18 18 18 18 17 17 18 18 18 18 18 18 18 17 17 17 17 17 17 17 17 17 17 17 17 17 17 17 17 16 16 16 16 16 16 16 16 16 16 16 16 15 15
18 18 18 18 17 18 18 18 18 18 18 18 18 18 17 17 17 17 17 17 17 17 17 17 17 17 17 17 17 16 16 16 16 16 16 16 16 16 16 16 16 15 15
18 18 18 18 18 18 18 18 18 18 18 18 18 18 18 18 17 17 17 17 17 17 17 17 17 17 17 17 17 16 16 16 16 16 16 16 16 16 16 16 15 15 15
18 18 18 18 18 18 18 18 18 18 18 18 18 18 18 18 18 17 17 17 17 17 17 17 17 17 17 17 17 17 16 16 16 16 16 16 16 16 16 16 15 15 15
18 18 18 18 18 18 18 18 18 18 18 18 18 18 17 18 18 18 17 17 17 17 17 17 17 17 17 17 17 17 17 16 16 16 16 16 16 16 16 16 15 15 15
17 17 18 17 17 17 18 18 18 18 18 18 18 17 17 18 18 18 18 18 17 17 17 17 17 17 17 17 17 17 17 16 16 16 16 16 16 16 16 16 15 15 15
17 17 18 18 17 17 17 17 17 17 17 17 17 17 17 18 17 17 18 18 17 17 17 17 17 17 17 17 17 17 17 17 16 16 16 16 16 16 16 16 15 15 15
17 17 17 17 17 17 17 17 17 17 17 17 17 17 17 17 17 17 17 17 17 17 17 17 17 17 17 17 17 17 17 17 16 16 16 16 16 16 16 15 15 15 15
17 17 17 17 17 17 17 17 17 17 17 17 17 17 17 17 17 17 17 17 17 17 17 17 17 17 17 17 17 17 17 16 16 16 16 16 16 16 16 15 15 15 15
17 17 17 17 17 17 17 17 17 17 17 17 17 17 17 17 17 17 17 17 17 17 17 17 17 17 17 17 17 16 16 16 16 16 16 16 16 16 15 15 15 15 15
17 17 17 17 17 17 17 17 17 17 17 17 17 17 17 17 17 17 17 17 17 16 17 17 17 17 17 16 16 16 16 16 16 16 16 16 15 15 15 15 15 15 15
17 17 17 17 17 17 17 17 17 17 17 17 17 17 17 17 17 17 17 16 16 16 16 16 16 16 16 16 16 16 16 16 16 15 15 15 15 15 15 15 15 15 14
17 17 17 17 17 17 17 17 17 17 17 17 17 16 16 16 16 16 16 16 16 16 16 16 16 16 16 16 16 15 15 15 15 15 15 15 15 15 14 14 14 14 14
17 17 17 17 17 17 16 16 16 16 16 16 16 16 16 16 16 16 16 16 16 16 16 15 15 15 15 15 15 15 15 15 15 15 15 14 14 14 14 14 14 13 13
17 17 17 17 16 16 16 16 16 16 16 16 16 16 16 15 15 15 15 15 15 15 15 15 15 15 15 15 14 14 14 14 14 14 14 14 14 13 13 13 13 13 13
17 16 16 16 16 16 16 16 16 16 16 16 15 15 15 15 15 15 15 15 15 15 15 14 14 14 14 14 14 14 14 13 13 13 13 13 13 13 12 12 12 12 12
16 16 16 16 16 16 16 16 16 15 15 15 15 15 15 15 15 15 15 14 14 14 14 14 14 14 14 13 13 13 13 13 13 12 12 12 12 12 12 12 11 11 11
16 16 16 16 16 15 15 15 15 15 15 15 15 14 14 14 14 14 14 14 14 14 14 14 13 13 13 13 13 13 12 12 12 12 12 11 11 11 11 11 11 11 10
16 16 16 15 15 15 15 15 15 15 15 14 14 14 14 14 14 14 13 13 13 13 13 13 13 12 12 12 12 12 12 12 11 11 11 11 10 10 10 10 10 10 10
16 15 15 15 15 15 14 14 14 14 14 14 14 13 13 13 13 13 13 13 13 12 12 12 12 12 12 12 11 11 11 11 11 11 11 10 10 10 9 9 9 9 9
15 15 15 14 14 14 14 14 14 14 13 13 13 13 13 12 12 12 12 12 12 12 11 11 11 11 11 11 11 11 11 10 10 10 10 9 9 9 9 8 8 8 8
15 14 14 14 14 13 13 13 13 13 13 13 12 12 12 12 11 11 11 11 11 11 11 10 10 10 10 10 10 10 10 10 10 9 9 9 8 8 8 8 8 7 7
14 14 13 13 13 13 13 12 12 12 12 12 12 11 11 11 11 11 11 11 10 10 10 10 10 10 10 10 10 9 9 9 9 8 8 8 8 8 7 7 7 7 7
Wind_Speed
5 5 5 5 5 5 4 3 3 2 1 1 5 7 7 8 10 10 11 14 14 13 13 12 12 11 11 11 11 11 11 10 10 9 9 9 9 9 9 8 8 8 8
6 5 4 4 4 6 6 4 4 3 2 2 3 6 8 9 10 10 11 13 14 13 13 13 12 12 12 11 11 11 11 11 11 10 10 9 9 9 9 9 9 8 8
7 6 4 3 4 6 5 3 2 2 1 1 2 3 6 8 9 11 12 12 13 14 14 14 13 13 13 13 12 12 12 12 12 12 11 11 10 10 10 10 10 9 9
8 6 4 3 5 4 3 2 2 2 1 1 1 2 3 5 8 10 11 12 12 12 14 15 15 14 14 14 14 13 13 13 13 13 13 12 12 11 11 11 11 11 10
8 6 4 3 4 3 2 2 2 2 2 1 2 2 2 3 5 8 9 12 13 13 13 15 16 15 14 14 14 14 14 14 14 14 14 14 13 13 13 13 13 12 12
7 5 3 3 3 2 1 2 2 1 2 2 1 1 2 3 3 4 7 9 11 13 14 13 13 14 15 15 15 15 15 15 15 15 15 15 15 15 15 15 14 14 13
5 4 3 3 3 3 3 3 2 2 1 1 1 2 3 2 3 4 4 5 7 11 13 14 14 13 13 16 17 16 16 16 16 16 16 16 16 16 16 16 16 16 15
5 4 3 2 3 2 3 3 3 2 1 2 3 1 2 4 3 3 3 4 5 7 9 13 13 14 13 12 15 17 17 16 16 17 17 17 17 17 17 17 17 17 17
6 5 5 4 3 3 3 4 4 4 2 1 2 3 3 3 3 3 2 2 3 4 5 9 12 14 14 14 14 16 18 18 17 17 17 17 17 18 18 17 17 18 18
6 6 5 4 4 3 3 4 4 3 4 2 1 1 3 4 2 2 3 2 2 3 4 5 8 11 12 13 14 17 19 19 19 18 17 17 17 17 17 17 17 17 17
4 5 5 4 3 3 4 3 3 3 3 3 2 2 1 1 2 2 2 3 2 2 4 4 4 6 9 11 12 14 17 19 18 18 18 17 16 16 16 16 16 16 16
2 4 4 4 4 3 4 4 3 4 3 3 3 3 2 2 2 3 3 3 3 3 2 2 3 4 7 9 11 12 13 15 17 17 16 16 15 15 14 14 14 14 15
2 4 3 3 3 3 3 3 3 3 3 3 3 3 3 3 3 3 3 3 2 2 2 1 2 3 5 6 8 10 11 13 14 14 14 14 13 12 12 12 12 12 12
3 3 3 3 3 3 3 2 2 3 3 3 3 3 2 2 2 3 3 3 1 2 2 2 1 1 3 4 6 7 7 9 11 12 12 11 10 9 9 9 9 8 8
2 2 2 3 2 2 2 2 2 2 2 2 2 2 2 2 2 2 2 3 3 2 3 3 2 2 1 2 3 4 5 6 8 10 10 9 8 7 7 6 6 6 5
2 2 2 2 2 2 2 2 2 2 2 2 2 1 2 2 1 1 1 1 3 3 2 2 2 2 2 1 1 1 2 3 5 7 7 7 6 6 5 4 3 3 3
2 2 1 1 1 1 1 1 1 2 2 2 1 1 2 1 1 1 1 1 0 2 2 2 1 2 2 2 2 2 2 2 1 2 4 4 4 4 4 3 2 1 1
2 2 2 1 1 1 1 1 1 1 1 1 1 0 1 1 0 1 1 0 0 1 2 2 2 2 2 1 2 2 3 3 4 4 3 4 5 5 4 4 3 3 2
3 2 2 2 1 1 0 0 0 1 0 0 0 0 0 0 1 1 1 1 0 0 1 1 2 1 1 2 2 2 3 3 4 5 6 6 6 6 6 5 5 5 4
4 3 3 2 2 2 2 2 2 2 2 2 2 2 2 1 1 1 1 1 1 1 1 1 0 1 1 1 2 2 2 2 2 4 6 6 7 7 7 6 6 6 5
4 4 4 4 4 3 3 3 2 3 3 3 4 4 5 7 8 5 3 2 2 1 1 2 1 1 2 1 1 0 1 1 2 2 3 4 5 6 7 6 7 7 8
4 5 5 5 5 4 5 5 4 4 4 4 4 5 6 7 9 10 10 9 6 4 2 2 1 1 1 1 1 1 1 1 0 2 2 3 3 3 4 5 5 6 7
5 6 5 5 6 7 8 9 9 7 6 5 4 4 5 5 6 5 8 10 10 10 7 3 3 1 1 1 1 1 1 1 1 0 2 2 2 3 3 5 6 6 6
5 5 5 6 6 7 9 10 10 8 7 6 6 5 5 5 5 4 5 7 6 6 5 4 3 2 2 1 0 1 2 2 3 3 3 2 1 1 2 4 4 4 4
6 6 5 6 6 7 9 9 8 6 7 6 6 6 5 5 6 5 5 5 5 5 8 9 8 7 8 9 6 4 3 3 2 2 2 2 1 1 2 2 3 3 4
6 6 7 6 6 6 7 9 8 5 6 5 5 5 7 6 6 6 4 5 5 3 4 5 6 7 8 9 9 5 3 3 2 1 2 2 1 1 1 2 2 3 3
Wind_Direction
175 179 184 193 208 208 203 206 219 219 222 188 157 158 161 157 158 163 172 174 174 175 175 176 178 178 178 180 181 181 179 179 179 177 178 179 177 175 174 174 173 172 171
174 172 173 180 199 201 200 194 193 186 191 155 134 153 162 159 168 173 176 179 182 183 184 185 186 187 188 190 191 190 191 190 189 190 192 193 192 190 188 186 187 186 186
175 169 169 176 191 190 185 174 158 152 140 120 125 146 157 164 177 181 184 184 188 192 192 192 193 196 198 199 200 199 200 200 199 199 201 202 200 201 200 198 197 197 198
181 173 172 189 191 178 161 148 150 136 131 126 145 172 167 175 187 189 191 193 195 198 202 203 203 204 207 208 209 208 207 208 206 207 208 208 209 209 208 207 206 207 208
185 178 174 185 179 161 158 179 159 158 171 175 188 191 189 188 191 194 198 202 203 206 207 212 212 212 215 216 217 216 215 214 213 213 215 217 217 216 215 215 215 214 215
180 173 174 186 175 155 163 161 153 161 181 191 217 216 237 224 211 201 203 205 207 209 210 212 214 218 221 222 222 223 222 221 219 219 219 222 223 222 221 221 220 220 221
178 170 175 178 177 176 190 177 159 164 198 151 81 351 325 283 237 222 210 197 202 208 209 212 214 217 223 227 228 227 227 227 225 224 224 226 226 225 225 225 225 225 226
185 185 177 186 191 177 184 184 165 161 210 158 142 104 344 335 312 249 220 206 205 203 205 212 214 215 221 224 228 229 229 231 230 228 227 228 229 229 229 230 229 229 230
193 193 191 195 201 188 195 202 185 172 197 229 162 153 159 231 290 316 272 224 206 198 207 212 216 220 221 224 228 231 231 232 233 232 231 229 229 230 231 232 233 233 234
201 201 199 203 200 189 198 210 192 181 174 208 226 197 185 172 175 292 320 294 244 221 213 216 219 219 222 224 228 231 232 231 232 233 234 233 231 232 233 234 236 237 236
212 210 206 203 197 193 200 207 191 180 175 180 190 196 188 165 172 176 266 300 311 264 230 215 215 214 219 224 230 232 233 231 233 235 237 236 235 234 234 236 238 240 240
224 224 214 204 199 196 200 205 200 191 187 180 182 181 177 183 204 188 222 253 267 278 261 230 216 213 217 219 226 229 229 229 232 234 235 235 234 234 233 235 238 241 243
225 232 229 209 201 201 200 195 191 196 191 189 193 196 196 202 190 185 197 236 253 277 296 273 240 227 228 219 225 228 225 226 229 232 232 232 233 234 233 233 236 239 242
223 223 217 208 204 197 199 184 191 203 187 197 208 201 203 219 198 191 191 191 251 297 307 281 303 251 227 208 219 217 215 215 217 223 223 224 226 230 230 229 232 234 236
205 195 199 193 197 186 183 180 189 205 186 203 217 211 214 238 227 215 202 185 182 234 279 283 295 314 298 219 228 207 211 212 208 208 209 212 216 220 221 219 223 226 225
133 122 131 144 176 183 188 178 184 204 195 215 210 208 240 265 273 268 239 207 184 187 227 285 289 301 343 14 47 163 193 199 209 205 202 203 207 209 200 197 201 204 209
101 107 111 114 125 130 151 159 211 218 210 222 234 218 248 259 286 321 338 358 187 162 201 282 305 330 355 9 37 64 68 94 83 181 189 182 176 169 159 161 167 170 177
99 102 91 89 100 90 97 122 215 223 198 222 245 219 277 274 24 339 352 12 13 168 182 245 308 339 348 10 58 57 65 74 72 72 102 134 139 136 133 133 133 127 120
80 79 87 93 87 69 62 30 97 101 103 93 105 128 275 56 12 351 11 10 343 72 137 184 283 325 355 32 44 44 58 60 70 70 78 85 98 104 106 110 112 111 108
76 67 67 64 64 65 63 66 78 79 75 63 59 60 55 83 76 50 42 18 44 61 78 111 343 351 7 10 51 46 32 25 43 54 65 77 84 89 94 96 96 97 99
80 72 63 54 50 57 62 76 87 90 83 67 56 59 64 73 71 69 69 49 52 68 84 91 63 43 29 27 6 331 103 79 46 48 58 55 59 61 63 76 83 86 88
77 71 64 61 54 48 54 70 86 81 85 81 74 64 63 60 66 68 69 68 71 81 86 84 75 66 0 348 358 63 110 102 47 19 61 47 53 53 46 63 78 90 93
82 75 65 66 64 51 56 65 74 80 78 74 74 67 66 60 61 64 64 63 59 61 72 99 89 55 345 320 6 59 78 93 89 20 73 55 36 52 45 55 71 73 77
86 80 69 66 67 57 62 72 77 77 74 65 61 64 69 55 59 73 72 66 56 45 54 66 82 44 29 5 147 156 147 97 68 42 64 83 27 36 42 54 67 65 60
84 76 70 66 66 54 63 76 79 81 77 64 56 58 63 54 50 68 76 72 55 34 50 60 61 54 52 53 60 72 69 84 60 16 20 77 64 49 36 17 18 28 29
92 86 72 61 66 59 60 73 78 88 85 70 55 49 52 53 47 57 76 80 68 27 31 37 38 36 38 44 52 67 93 99 89 33 359 62 54 60 48 349 340 353 6
Height
1574 1575 1576 1577 1578 1579 1579 1580 1581 1581 1582 1582 1582 1582 1583 1583 1584 1584 1584 1584 1584 1584 1585 1585 1586 1586 1586 1587 1588 1588 1589 1589 1590 1590 1590 1591 1591 1592 1593 1593 1594 1594 1595
1574 1575 1576 1577 1577 1578 1579 1580 1581 1581 1582 1583 1583 1583 1583 1584 1584 1584 1584 1584 1584 1585 1585 1585 1586 1586 1587 1587 1587 1588 1588 1589 1589 1590 1590 1590 1591 1592 1592 1593 1593 1594 1594
1574 1575 1576 1577 1577 1578 1579 1580 1580 1581 1582 1582 1582 1583 1583 1583 1584 1584 1584 1584 1585 1585 1585 1585 1585 1586 1586 1587 1587 1587 1588 1588 1588 1589 1589 1590 1590 1591 1591 1592 1592 1593 1593
1573 1574 1575 1576 1577 1578 1578 1579 1580 1580 1581 1581 1582 1582 1582 1583 1583 1583 1584 1584 1584 1584 1585 1585 1585 1585 1585 1586 1586 1586 1587 1587 1587 1588 1588 1589 1589 1590 1590 1591 1591 1592 1592
1572 1573 1574 1575 1576 1577 1577 1578 1579 1580 1580 1581 1581 1581 1582 1582 1582 1582 1583 1583 1584 1584 1584 1584 1584 1584 1584 1585 1585 1585 1585 1586 1586 1586 1587 1587 1588 1588 1589 1589 1590 1590 1590
1571 1572 1573 1574 1575 1575 1576 1577 1577 1578 1579 1580 1580 1580 1581 1581 1581 1581 1581 1582 1582 1582 1583 1583 1583 1583 1583 1583 1583 1584 1584 1584 1584 1584 1585 1585 1586 1586 1587 1587 1588 1588 1588
1570 1571 1571 1572 1573 1574 1575 1575 1576 1577 1577 1578 1579 1579 1579 1579 1579 1580 1580 1580 1580 1580 1581 1581 1581 1581 1581 1581 1582 1582 1582 1582 1582 1582 1583 1583 1583 1584 1584 1585 1585 1586 1586
1568 1568 1569 1570 1571 1572 1573 1574 1574 1575 1576 1577 1577 1577 1577 1578 1577 1578 1578 1578 1578 1578 1579 1579 1579 1579 1579 1580 1579 1579 1579 1580 1580 1580 1580 1580 1580 1581 1581 1582 1582 1583 1583
1565 1566 1567 1568 1569 1570 1570 1572 1573 1573 1574 1575 1575 1576 1576 1575 1575 1576 1575 1575 1575 1576 1576 1576 1576 1577 1577 1577 1577 1577 1577 1577 1577 1577 1577 1577 1578 1578 1578 1579 1579 1579 1580
1563 1564 1565 1565 1566 1567 1568 1569 1570 1571 1572 1573 1573 1574 1574 1574 1574 1573 1574 1573 1573 1573 1573 1574 1574 1574 1574 1574 1574 1574 1574 1574 1574 1574 1574 1574 1574 1574 1575 1575 1575 1576 1576
1560 1561 1562 1563 1564 1565 1566 1567 1568 1569 1569 1570 1571 1571 1572 1572 1572 1572 1571 1571 1571 1571 1571 1571 1571 1571 1571 1571 1571 1571 1571 1571 1571 1571 1571 1571 1571 1571 1571 1571 1571 1572 1572
1558 1559 1560 1561 1562 1563 1563 1565 1566 1566 1567 1568 1568 1569 1569 1569 1569 1570 1569 1568 1568 1568 1568 1568 1568 1568 1568 1568 1567 1567 1567 1567 1567 1567 1567 1568 1567 1567 1567 1567 1567 1568 1568
1556 1556 1557 1558 1559 1560 1561 1562 1563 1564 1565 1565 1566 1566 1566 1567 1567 1567 1567 1566 1565 1565 1565 1565 1565 1565 1564 1564 1564 1564 1563 1563 1563 1563 1563 1563 1564 1563 1563 1563 1563 1563 1563
1554 1555 1555 1556 1557 1558 1559 1560 1561 1561 1562 1562 1563 1563 1564 1564 1564 1564 1564 1564 1563 1563 1562 1562 1562 1562 1561 1560 1560 1560 1559 1559 1559 1559 1559 1559 1559 1559 1559 1559 1559 1559 1559
1552 1553 1554 1555 1555 1556 1557 1558 1558 1559 1559 1559 1560 1561 1561 1561 1561 1561 1561 1561 1562 1560 1559 1559 1558 1558 1557 1557 1556 1555 1555 1555 1555 1555 1555 1555 1555 1555 1555 1555 1555 1555 1555
1551 1552 1552 1553 1553 1554 1555 1555 1556 1556 1557 1557 1557 1558 1558 1558 1558 1558 1558 1558 1558 1558 1556 1556 1555 1555 1554 1554 1553 1552 1551 1551 1551 1551 1551 1551 1551 1551 1551 1551 1551 1551 1551
1551 1551 1551 1551 1551 1552 1553 1553 1553 1554 1554 1554 1555 1555 1555 1555 1555 1555 1555 1555 1555 1555 1553 1553 1553 1552 1551 1550 1549 1549 1548 1547 1547 1547 1547 1548 1548 1547 1547 1547 1547 1547 1546
1550 1550 1550 1550 1550 1550 1551 1551 1551 1551 1551 1552 1552 1552 1552 1552 1552 1552 1552 1552 1552 1551 1551 1550 1550 1549 1549 1548 1547 1546 1546 1545 1545 1545 1545 1545 1544 1544 1543 1543 1543 1542 1542
1550 1550 1550 1549 1550 1550 1550 1550 1550 1549 1549 1549 1549 1549 1549 1549 1549 1549 1549 1549 1549 1549 1548 1548 1547 1547 1546 1546 1545 1544 1544 1543 1543 1543 1542 1542 1542 1541 1541 1541 1540 1539 1539
1550 1550 1550 1549 1549 1549 1549 1548 1548 1548 1548 1548 1547 1547 1547 1546 1546 1547 1547 1547 1546 1546 1545 1545 1545 1544 1543 1543 1543 1542 1542 1542 1541 1541 1540 1540 1540 1539 1538 1538 1537 1537 1536
1550 1550 1549 1549 1548 1548 1548 1547 1547 1547 1546 1546 1546 1545 1545 1545 1544 1544 1544 1544 1544 1543 1543 1542 1542 1542 1541 1540 1540 1540 1540 1539 1539 1539 1539 1538 1538 1537 1536 1536 1535 1534 1534
1550 1549 1549 1549 1548 1547 1547 1547 1547 1546 1546 1545 1545 1545 1544 1544 1543 1543 1543 1543 1542 1542 1541 1540 1539 1539 1539 1539 1539 1538 1538 1538 1537 1538 1537 1537 1536 1535 1535 1534 1533 1533 1532
1550 1549 1549 1548 1548 1547 1547 1547 1546 1546 1545 1545 1544 1544 1544 1543 1543 1542 1542 1542 1541 1540 1540 1540 1538 1538 1538 1537 1537 1536 1536 1536 1535 1535 1535 1534 1534 1534 1533 1533 1532 1532 1531
1549 1549 1549 1548 1548 1547 1547 1547 1546 1546 1545 1545 1545 1544 1544 1543 1543 1543 1542 1541 1540 1540 1539 1538 1538 1538 1537 1537 1536 1536 1535 1535 1534 1534 1534 1533 1533 1532 1533 1532 1532 1531 1530
1549 1549 1548 1548 1547 1547 1547 1547 1546 1546 1545 1545 1545 1544 1544 1544 1543 1543 1542 1541 1540 1540 1540 1539 1538 1538 1537 1536 1535 1534 1534 1533 1532 1533 1533 1532 1532 1532 1532 1532 1531 1531 1530
1549 1549 1548 1548 1548 1547 1548 1548 1547 1547 1546 1545 1545 1545 1544 1544 1544 1543 1542 1541 1540 1540 1540 1540 1539 1538 1537 1536 1535 1534 1533 1533 1532 1532 1532 1532 1531 1531 1531 1532 1531 1531 1530